Time,TemperatureF,DewpointF,PressureIn,WindDirection,WindDirectionDegrees,WindSpeedMPH,WindSpeedGustMPH,Humidity,HourlyPrecipIn,Conditions,Clouds,dailyrainin,SoftwareType,DateUTC
2013-02-25 00:01:00,45.4,37.5,29.60,East,90,6.7,9.2,74,0.00,,,0.00,WUHU216HW,2013-02-25 08:01:00,
2013-02-25 00:06:00,45.4,37.5,29.60,ENE,68,11.2,11.2,74,0.00,,,0.00,WUHU216HW,2013-02-25 08:06:00,
2013-02-25 00:11:00,45.2,37.4,29.60,WSW,248,6.5,11.2,74,0.00,,,0.00,WUHU216HW,2013-02-25 08:11:00,
2013-02-25 00:16:00,45.2,37.7,29.60,SE,135,3.4,9.2,75,0.00,,,0.00,WUHU216HW,2013-02-25 08:16:00,
2013-02-25 00:21:00,45.0,37.5,29.60,East,90,10.7,10.7,75,0.00,,,0.00,WUHU216HW,2013-02-25 08:21:00,
2013-02-25 00:26:00,45.0,37.5,29.60,SE,135,6.3,10.7,75,0.00,,,0.00,WUHU216HW,2013-02-25 08:26:00,
2013-02-25 00:31:00,45.0,37.9,29.59,SE,146,4.8,8.5,76,0.00,,,0.00,WUHU216HW,2013-02-25 08:31:00,
2013-02-25 00:36:00,44.8,37.7,29.59,SE,135,4.7,7.6,76,0.00,,,0.00,WUHU216HW,2013-02-25 08:36:00,
2013-02-25 00:41:00,44.8,37.7,29.59,East,90,6.1,8.5,76,0.00,,,0.00,WUHU216HW,2013-02-25 08:41:00,
2013-02-25 00:46:00,44.6,37.9,29.59,ESE,119,6.5,9.4,77,0.00,,,0.00,WUHU216HW,2013-02-25 08:46:00,
2013-02-25 00:51:00,44.6,37.9,29.59,SSE,158,8.3,9.4,77,0.00,,,0.00,WUHU216HW,2013-02-25 08:51:00,
2013-02-25 00:56:00,44.6,37.9,29.59,East,90,9.2,9.2,77,0.00,,,0.00,WUHU216HW,2013-02-25 08:56:00,
2013-02-25 01:01:00,44.6,37.9,29.58,SE,135,6.7,9.2,77,0.00,,,0.00,WUHU216HW,2013-02-25 09:01:00,
2013-02-25 01:06:00,44.5,37.7,29.59,ESE,113,4.6,6.9,77,0.00,,,0.00,WUHU216HW,2013-02-25 09:06:00,
2013-02-25 01:11:00,44.5,37.7,29.59,SSW,203,4.5,6.9,77,0.00,,,0.00,WUHU216HW,2013-02-25 09:11:00,
2013-02-25 01:16:00,44.3,37.8,29.59,SSE,164,4.9,11.0,78,0.00,,,0.00,WUHU216HW,2013-02-25 09:16:00,
2013-02-25 01:21:00,44.3,38.2,29.59,ESE,113,6.3,11.0,79,0.01,,,0.00,WUHU216HW,2013-02-25 09:21:00,
2013-02-25 01:26:00,43.9,38.4,29.60,South,180,4.9,6.3,81,0.01,,,0.01,WUHU216HW,2013-02-25 09:26:00,
2013-02-25 01:31:00,43.7,38.0,29.59,ESE,113,3.4,6.7,80,0.02,,,0.01,WUHU216HW,2013-02-25 09:31:00,
2013-02-25 01:36:00,43.6,38.1,29.59,ESE,113,4.0,6.7,81,0.02,,,0.02,WUHU216HW,2013-02-25 09:36:00,
2013-02-25 01:41:00,43.6,38.1,29.59,SE,135,4.9,6.9,81,0.03,,,0.03,WUHU216HW,2013-02-25 09:41:00,
2013-02-25 01:46:00,43.4,38.3,29.59,SSW,197,2.6,6.9,82,0.03,,,0.03,WUHU216HW,2013-02-25 09:46:00,
2013-02-25 01:51:00,43.2,38.3,29.59,SE,126,6.1,7.4,83,0.04,,,0.04,WUHU216HW,2013-02-25 09:51:00,
2013-02-25 01:56:00,43.2,38.3,29.59,SE,135,2.5,9.2,83,0.05,,,0.04,WUHU216HW,2013-02-25 09:56:00,
2013-02-25 02:01:00,42.8,38.4,29.59,ESE,113,3.4,9.2,84,0.05,,,0.05,WUHU216HW,2013-02-25 10:01:00,
2013-02-25 02:06:00,42.8,38.6,29.59,ESE,113,8.5,8.5,85,0.06,,,0.06,WUHU216HW,2013-02-25 10:06:00,
2013-02-25 02:11:00,42.7,38.4,29.59,East,98,6.6,8.5,85,0.08,,,0.07,WUHU216HW,2013-02-25 10:11:00,
2013-02-25 02:16:00,42.5,38.3,29.59,SE,135,4.0,8.5,85,0.09,,,0.09,WUHU216HW,2013-02-25 10:16:00,
2013-02-25 02:21:00,42.5,38.3,29.59,SE,135,6.3,6.7,85,0.08,,,0.09,WUHU216HW,2013-02-25 10:21:00,
2013-02-25 02:26:00,42.3,38.1,29.59,ESE,113,4.0,7.6,85,0.08,,,0.09,WUHU216HW,2013-02-25 10:26:00,
2013-02-25 02:31:00,42.3,38.1,29.60,ESE,113,5.6,7.6,85,0.07,,,0.09,WUHU216HW,2013-02-25 10:31:00,
2013-02-25 02:36:00,42.3,38.1,29.59,SE,135,4.3,5.6,85,0.08,,,0.10,WUHU216HW,2013-02-25 10:36:00,
2013-02-25 02:41:00,42.3,38.1,29.59,SE,135,5.1,6.9,85,0.07,,,0.10,WUHU216HW,2013-02-25 10:41:00,
2013-02-25 02:46:00,42.1,38.2,29.59,ENE,68,4.7,6.9,86,0.07,,,0.10,WUHU216HW,2013-02-25 10:46:00,
2013-02-25 02:51:00,42.1,38.2,29.58,ESE,120,4.2,5.4,86,0.06,,,0.10,WUHU216HW,2013-02-25 10:51:00,
2013-02-25 02:56:00,42.1,38.2,29.58,ESE,113,4.7,6.7,86,0.05,,,0.10,WUHU216HW,2013-02-25 10:56:00,
2013-02-25 03:01:00,42.1,38.2,29.58,ESE,113,2.2,6.7,86,0.04,,,0.10,WUHU216HW,2013-02-25 11:01:00,
2013-02-25 03:06:00,41.9,38.0,29.57,East,90,3.7,5.8,86,0.03,,,0.10,WUHU216HW,2013-02-25 11:06:00,
2013-02-25 03:11:00,41.8,37.8,29.57,ESE,113,7.6,7.6,86,0.02,,,0.10,WUHU216HW,2013-02-25 11:11:00,
2013-02-25 03:16:00,41.8,37.8,29.57,SE,135,5.5,8.5,86,0.01,,,0.10,WUHU216HW,2013-02-25 11:16:00,
2013-02-25 03:21:00,41.8,38.2,29.57,SE,135,4.3,8.5,87,0.01,,,0.10,WUHU216HW,2013-02-25 11:21:00,
2013-02-25 03:26:00,41.6,38.0,29.57,East,90,8.9,8.9,87,0.01,,,0.10,WUHU216HW,2013-02-25 11:26:00,
2013-02-25 03:31:00,41.4,37.8,29.56,SE,135,4.3,8.9,87,0.01,,,0.10,WUHU216HW,2013-02-25 11:31:00,
2013-02-25 03:36:00,41.4,37.8,29.56,ESE,113,4.5,5.4,87,0.00,,,0.10,WUHU216HW,2013-02-25 11:36:00,
2013-02-25 03:41:00,41.4,37.8,29.56,SE,124,4.3,6.7,87,0.00,,,0.10,WUHU216HW,2013-02-25 11:41:00,
2013-02-25 03:46:00,41.4,37.8,29.56,ESE,113,4.0,6.7,87,0.00,,,0.10,WUHU216HW,2013-02-25 11:46:00,
2013-02-25 03:51:00,41.4,37.8,29.56,ESE,111,5.2,5.4,87,0.00,,,0.10,WUHU216HW,2013-02-25 11:51:00,
2013-02-25 03:56:00,41.4,37.8,29.56,ESE,113,4.9,5.4,87,0.00,,,0.10,WUHU216HW,2013-02-25 11:56:00,
2013-02-25 04:01:00,41.4,37.8,29.57,ESE,102,2.8,4.9,87,0.00,,,0.10,WUHU216HW,2013-02-25 12:01:00,
2013-02-25 04:06:00,41.4,37.8,29.57,ESE,113,1.8,4.0,87,0.00,,,0.10,WUHU216HW,2013-02-25 12:06:00,
2013-02-25 04:11:00,41.4,37.8,29.57,SE,135,4.7,6.7,87,0.00,,,0.10,WUHU216HW,2013-02-25 12:11:00,
2013-02-25 04:16:00,41.6,38.0,29.57,ESE,113,2.5,6.7,87,0.00,,,0.10,WUHU216HW,2013-02-25 12:16:00,
2013-02-25 04:21:00,41.6,38.0,29.57,ESE,113,10.3,10.3,87,0.00,,,0.10,WUHU216HW,2013-02-25 12:21:00,
2013-02-25 04:26:00,41.8,38.2,29.57,ESE,113,7.2,10.3,87,0.00,,,0.10,WUHU216HW,2013-02-25 12:26:00,
2013-02-25 04:31:00,41.9,38.4,29.57,ESE,119,4.3,7.2,87,0.00,,,0.10,WUHU216HW,2013-02-25 12:31:00,
2013-02-25 04:36:00,42.1,38.2,29.57,ESE,104,6.1,9.2,86,0.00,,,0.10,WUHU216HW,2013-02-25 12:36:00,
2013-02-25 04:41:00,42.1,38.2,29.57,South,180,6.3,9.2,86,0.00,,,0.10,WUHU216HW,2013-02-25 12:41:00,
2013-02-25 04:46:00,42.3,38.3,29.58,South,175,3.0,6.3,86,0.00,,,0.10,WUHU216HW,2013-02-25 12:46:00,
2013-02-25 04:51:00,42.5,38.5,29.58,ESE,113,2.9,5.4,86,0.00,,,0.10,WUHU216HW,2013-02-25 12:51:00,
2013-02-25 04:56:00,42.7,38.7,29.58,SSE,158,4.0,4.3,86,0.00,,,0.10,WUHU216HW,2013-02-25 12:56:00,
2013-02-25 05:01:00,42.8,38.6,29.59,SE,135,1.5,4.5,85,0.00,,,0.10,WUHU216HW,2013-02-25 13:01:00,
2013-02-25 05:06:00,42.8,38.6,29.59,East,90,13.4,13.4,85,0.00,,,0.10,WUHU216HW,2013-02-25 13:06:00,
2013-02-25 05:11:00,43.0,38.8,29.59,East,85,3.7,13.4,85,0.00,,,0.10,WUHU216HW,2013-02-25 13:11:00,
2013-02-25 05:16:00,43.2,39.0,29.59,South,180,4.0,6.9,85,0.00,,,0.10,WUHU216HW,2013-02-25 13:16:00,
2013-02-25 05:21:00,43.2,39.0,29.59,SSE,158,3.1,6.3,85,0.00,,,0.10,WUHU216HW,2013-02-25 13:21:00,
2013-02-25 05:26:00,43.2,39.0,29.59,East,90,5.8,6.3,85,0.00,,,0.10,WUHU216HW,2013-02-25 13:26:00,
2013-02-25 05:31:00,43.2,39.0,29.59,ESE,119,2.8,6.9,85,0.00,,,0.10,WUHU216HW,2013-02-25 13:31:00,
2013-02-25 05:36:00,43.4,39.2,29.59,SSE,150,4.8,7.6,85,0.00,,,0.10,WUHU216HW,2013-02-25 13:36:00,
2013-02-25 05:41:00,43.4,39.2,29.59,South,180,3.8,7.6,85,0.00,,,0.10,WUHU216HW,2013-02-25 13:41:00,
2013-02-25 05:46:00,43.4,39.2,29.59,SE,135,4.0,4.7,85,0.00,,,0.10,WUHU216HW,2013-02-25 13:46:00,
2013-02-25 05:51:00,43.6,39.1,29.59,SE,135,4.0,4.0,84,0.00,,,0.10,WUHU216HW,2013-02-25 13:51:00,
2013-02-25 05:56:00,43.6,39.1,29.59,SE,135,1.8,6.9,84,0.00,,,0.10,WUHU216HW,2013-02-25 13:56:00,
2013-02-25 06:01:00,43.6,38.7,29.58,SE,128,5.8,11.9,83,0.00,,,0.10,WUHU216HW,2013-02-25 14:01:00,
2013-02-25 06:07:00,43.6,38.7,29.58,SE,135,4.0,11.9,83,0.00,,,0.10,WUHU216HW,2013-02-25 14:07:00,
2013-02-25 06:12:00,43.6,38.4,29.58,SSE,158,4.0,5.6,82,0.00,,,0.10,WUHU216HW,2013-02-25 14:12:00,
2013-02-25 06:17:00,43.6,38.4,29.59,ESE,118,6.9,8.3,82,0.00,,,0.10,WUHU216HW,2013-02-25 14:17:00,
2013-02-25 06:22:00,43.6,38.4,29.58,SSE,158,4.3,8.3,82,0.00,,,0.10,WUHU216HW,2013-02-25 14:22:00,
2013-02-25 06:27:00,43.6,38.1,29.58,SSE,148,4.8,7.6,81,0.00,,,0.10,WUHU216HW,2013-02-25 14:27:00,
2013-02-25 06:32:00,43.6,38.1,29.58,ESE,114,4.3,7.6,81,0.00,,,0.10,WUHU216HW,2013-02-25 14:32:00,
2013-02-25 06:37:00,43.6,38.1,29.58,ESE,111,5.4,6.3,81,0.00,,,0.10,WUHU216HW,2013-02-25 14:37:00,
2013-02-25 06:42:00,43.7,38.3,29.57,SSE,158,9.6,9.6,81,0.00,,,0.10,WUHU216HW,2013-02-25 14:42:00,
2013-02-25 06:47:00,43.7,38.3,29.57,South,189,4.8,9.6,81,0.00,,,0.10,WUHU216HW,2013-02-25 14:47:00,
2013-02-25 06:52:00,43.7,38.0,29.57,South,190,9.5,10.5,80,0.00,,,0.10,WUHU216HW,2013-02-25 14:52:00,
2013-02-25 06:57:00,43.9,37.8,29.57,SW,225,7.5,10.5,79,0.00,,,0.10,WUHU216HW,2013-02-25 14:57:00,
2013-02-25 07:02:00,43.9,38.2,29.56,ESE,103,4.1,11.4,80,0.00,,,0.10,WUHU216HW,2013-02-25 15:02:00,
2013-02-25 07:07:00,43.7,38.0,29.57,South,180,6.9,11.4,80,0.00,,,0.10,WUHU216HW,2013-02-25 15:07:00,
2013-02-25 07:12:00,43.7,38.0,29.57,SE,135,5.6,6.9,80,0.00,,,0.10,WUHU216HW,2013-02-25 15:12:00,
2013-02-25 07:17:00,43.9,37.8,29.57,SE,135,5.4,11.6,79,0.00,,,0.10,WUHU216HW,2013-02-25 15:17:00,
2013-02-25 07:22:00,44.1,38.0,29.56,SSE,158,4.7,11.6,79,0.00,,,0.10,WUHU216HW,2013-02-25 15:22:00,
2013-02-25 07:27:00,44.1,38.3,29.57,ESE,113,9.6,9.6,80,0.00,,,0.10,WUHU216HW,2013-02-25 15:27:00,
2013-02-25 07:32:00,43.9,38.2,29.56,WSW,239,2.8,9.6,80,0.00,,,0.10,WUHU216HW,2013-02-25 15:32:00,
2013-02-25 07:37:00,43.9,38.2,29.56,SSE,158,4.9,9.2,80,0.01,,,0.11,WUHU216HW,2013-02-25 15:37:00,
2013-02-25 07:42:00,43.9,38.4,29.56,SE,143,7.1,9.4,81,0.01,,,0.11,WUHU216HW,2013-02-25 15:42:00,
2013-02-25 07:47:00,43.7,38.3,29.56,SW,225,7.6,11.4,81,0.01,,,0.11,WUHU216HW,2013-02-25 15:47:00,
2013-02-25 07:52:00,43.6,38.1,29.55,SSW,203,15.9,15.9,81,0.01,,,0.11,WUHU216HW,2013-02-25 15:52:00,
2013-02-25 07:57:00,43.6,38.1,29.55,SSE,168,9.3,15.9,81,0.02,,,0.12,WUHU216HW,2013-02-25 15:57:00,
2013-02-25 08:02:00,43.4,38.3,29.56,South,187,4.4,9.6,82,0.02,,,0.12,WUHU216HW,2013-02-25 16:02:00,
2013-02-25 08:07:00,43.4,38.3,29.56,South,180,8.9,10.3,82,0.02,,,0.12,WUHU216HW,2013-02-25 16:07:00,
2013-02-25 08:12:00,43.4,38.3,29.56,West,270,3.4,11.4,82,0.02,,,0.12,WUHU216HW,2013-02-25 16:12:00,
2013-02-25 08:17:00,43.4,38.3,29.56,SW,216,8.6,11.4,82,0.02,,,0.12,WUHU216HW,2013-02-25 16:17:00,
2013-02-25 08:22:00,43.6,38.4,29.56,SW,225,9.9,12.1,82,0.02,,,0.12,WUHU216HW,2013-02-25 16:22:00,
2013-02-25 08:27:00,43.6,38.1,29.56,SSW,197,6.7,12.1,81,0.02,,,0.12,WUHU216HW,2013-02-25 16:27:00,
2013-02-25 08:32:00,43.7,38.3,29.56,SW,229,10.3,12.1,81,0.01,,,0.12,WUHU216HW,2013-02-25 16:32:00,
2013-02-25 08:37:00,43.7,38.0,29.57,SSE,158,11.4,12.5,80,0.01,,,0.12,WUHU216HW,2013-02-25 16:37:00,
2013-02-25 08:42:00,43.9,38.2,29.57,SW,225,7.6,12.5,80,0.01,,,0.12,WUHU216HW,2013-02-25 16:42:00,
2013-02-25 08:47:00,43.9,38.2,29.57,SSW,194,11.0,11.9,80,0.01,,,0.12,WUHU216HW,2013-02-25 16:47:00,
2013-02-25 08:52:00,43.9,38.2,29.58,SSW,204,9.9,13.4,80,0.01,,,0.12,WUHU216HW,2013-02-25 16:52:00,
2013-02-25 08:57:00,43.9,38.4,29.58,South,171,6.3,13.4,81,0.00,,,0.12,WUHU216HW,2013-02-25 16:57:00,
2013-02-25 09:02:00,43.9,38.4,29.58,South,177,6.1,8.1,81,0.00,,,0.12,WUHU216HW,2013-02-25 17:02:00,
2013-02-25 09:07:00,44.1,38.6,29.59,WSW,248,6.9,7.6,81,0.00,,,0.12,WUHU216HW,2013-02-25 17:07:00,
2013-02-25 09:12:00,44.3,38.5,29.59,WSW,248,6.3,6.9,80,0.00,,,0.12,WUHU216HW,2013-02-25 17:12:00,
2013-02-25 09:17:00,44.5,38.7,29.59,SSW,203,9.2,13.4,80,0.00,,,0.12,WUHU216HW,2013-02-25 17:17:00,
2013-02-25 09:22:00,44.5,38.7,29.60,SSE,158,6.9,13.4,80,0.00,,,0.12,WUHU216HW,2013-02-25 17:22:00,
2013-02-25 09:27:00,44.5,38.7,29.60,SE,135,6.9,10.1,80,0.00,,,0.12,WUHU216HW,2013-02-25 17:27:00,
2013-02-25 09:32:00,44.5,38.3,29.60,SSE,158,8.5,11.4,79,0.00,,,0.12,WUHU216HW,2013-02-25 17:32:00,
2013-02-25 09:37:00,44.6,38.5,29.61,SSE,147,4.8,11.4,79,0.00,,,0.12,WUHU216HW,2013-02-25 17:37:00,
2013-02-25 09:42:00,44.8,38.7,29.62,SSE,163,4.5,9.2,79,0.00,,,0.12,WUHU216HW,2013-02-25 17:42:00,
2013-02-25 09:47:00,44.6,38.9,29.62,SE,135,9.4,9.4,80,0.01,,,0.12,WUHU216HW,2013-02-25 17:47:00,
2013-02-25 09:52:00,44.3,38.8,29.63,SSE,162,4.9,9.4,81,0.01,,,0.13,WUHU216HW,2013-02-25 17:52:00,
2013-02-25 09:57:00,44.3,38.8,29.63,WNW,293,2.5,6.7,81,0.01,,,0.13,WUHU216HW,2013-02-25 17:57:00,
2013-02-25 10:02:00,44.3,38.8,29.63,SSE,158,4.3,6.5,81,0.01,,,0.13,WUHU216HW,2013-02-25 18:02:00,
2013-02-25 10:07:00,44.3,38.8,29.64,SW,227,3.7,6.5,81,0.01,,,0.13,WUHU216HW,2013-02-25 18:07:00,
2013-02-25 10:12:00,44.5,38.7,29.64,SE,135,6.3,6.3,80,0.01,,,0.13,WUHU216HW,2013-02-25 18:12:00,
2013-02-25 10:17:00,44.5,38.7,29.64,SW,225,6.3,7.8,80,0.01,,,0.13,WUHU216HW,2013-02-25 18:17:00,
2013-02-25 10:22:00,44.5,38.7,29.65,WNW,285,5.6,9.8,80,0.01,,,0.13,WUHU216HW,2013-02-25 18:22:00,
2013-02-25 10:27:00,44.3,38.2,29.65,WSW,249,5.6,9.8,79,0.01,,,0.13,WUHU216HW,2013-02-25 18:27:00,
2013-02-25 10:32:00,44.3,38.2,29.65,SSE,155,4.9,9.8,79,0.01,,,0.13,WUHU216HW,2013-02-25 18:32:00,
2013-02-25 10:37:00,44.3,38.2,29.66,South,189,7.3,10.1,79,0.01,,,0.13,WUHU216HW,2013-02-25 18:37:00,
2013-02-25 10:42:00,43.9,38.4,29.66,South,188,5.1,10.1,81,0.02,,,0.14,WUHU216HW,2013-02-25 18:42:00,
2013-02-25 10:47:00,43.4,37.9,29.67,SSE,158,4.0,6.3,81,0.02,,,0.14,WUHU216HW,2013-02-25 18:47:00,
2013-02-25 10:52:00,43.2,37.7,29.67,SSE,158,4.5,5.8,81,0.02,,,0.15,WUHU216HW,2013-02-25 18:52:00,
2013-02-25 10:57:00,43.2,37.7,29.68,SSW,192,2.8,4.7,81,0.03,,,0.16,WUHU216HW,2013-02-25 18:57:00,
2013-02-25 11:02:00,43.2,38.1,29.68,SSE,162,2.2,7.6,82,0.03,,,0.16,WUHU216HW,2013-02-25 19:02:00,
2013-02-25 11:07:00,43.4,37.9,29.69,NW,315,4.7,7.6,81,0.04,,,0.16,WUHU216HW,2013-02-25 19:07:00,
2013-02-25 11:12:00,43.6,38.1,29.69,SE,135,1.1,5.4,81,0.04,,,0.17,WUHU216HW,2013-02-25 19:12:00,
2013-02-25 11:17:00,43.6,38.1,29.69,SE,138,2.7,4.9,81,0.04,,,0.17,WUHU216HW,2013-02-25 19:17:00,
2013-02-25 11:22:00,43.6,38.1,29.70,NNE,23,2.5,5.8,81,0.05,,,0.18,WUHU216HW,2013-02-25 19:22:00,
2013-02-25 11:27:00,43.4,38.3,29.69,NNW,336,3.2,5.8,82,0.07,,,0.20,WUHU216HW,2013-02-25 19:27:00,
2013-02-25 11:32:00,43.2,38.3,29.70,WSW,248,2.0,3.4,83,0.07,,,0.20,WUHU216HW,2013-02-25 19:32:00,
2013-02-25 11:37:00,43.4,38.5,29.70,SW,224,0.6,2.0,83,0.06,,,0.20,WUHU216HW,2013-02-25 19:37:00,
2013-02-25 11:42:00,43.6,38.7,29.70,West,270,0.7,1.6,83,0.06,,,0.20,WUHU216HW,2013-02-25 19:42:00,
2013-02-25 11:47:00,43.7,39.3,29.71,NNE,23,0.0,1.8,84,0.05,,,0.20,WUHU216HW,2013-02-25 19:47:00,
2013-02-25 11:52:00,43.9,39.4,29.71,South,180,0.4,1.8,84,0.04,,,0.20,WUHU216HW,2013-02-25 19:52:00,
2013-02-25 11:57:00,44.3,39.8,29.71,SE,135,0.4,0.4,84,0.04,,,0.20,WUHU216HW,2013-02-25 19:57:00,
2013-02-25 12:02:00,44.5,40.0,29.72,SE,135,0.7,0.7,84,0.04,,,0.20,WUHU216HW,2013-02-25 20:02:00,
2013-02-25 12:07:00,44.8,40.3,29.72,SSE,158,1.1,1.1,84,0.03,,,0.20,WUHU216HW,2013-02-25 20:07:00,
2013-02-25 12:12:00,45.0,40.5,29.72,West,270,1.1,2.5,84,0.03,,,0.20,WUHU216HW,2013-02-25 20:12:00,
2013-02-25 12:17:00,45.4,40.9,29.72,NNW,332,0.4,2.5,84,0.03,,,0.20,WUHU216HW,2013-02-25 20:17:00,
2013-02-25 12:22:00,45.5,40.7,29.72,SW,225,2.0,2.0,83,0.01,,,0.20,WUHU216HW,2013-02-25 20:22:00,
2013-02-25 12:27:00,45.7,40.9,29.72,SSW,203,2.0,2.0,83,0.00,,,0.20,WUHU216HW,2013-02-25 20:27:00,
2013-02-25 12:32:00,45.9,41.0,29.73,SE,135,2.0,2.0,83,0.00,,,0.20,WUHU216HW,2013-02-25 20:32:00,
2013-02-25 12:37:00,46.3,41.1,29.73,NNW,338,1.1,2.0,82,0.00,,,0.20,WUHU216HW,2013-02-25 20:37:00,
2013-02-25 12:42:00,46.4,41.3,29.73,North,0,0.9,2.0,82,0.00,,,0.20,WUHU216HW,2013-02-25 20:42:00,
2013-02-25 12:47:00,46.6,41.1,29.73,WNW,283,1.3,2.5,81,0.00,,,0.20,WUHU216HW,2013-02-25 20:47:00,
2013-02-25 12:52:00,46.8,41.1,29.73,WNW,284,0.9,2.5,80,0.00,,,0.20,WUHU216HW,2013-02-25 20:52:00,
2013-02-25 12:57:00,47.0,41.1,29.74,NW,315,1.6,2.5,80,0.00,,,0.20,WUHU216HW,2013-02-25 20:57:00,
2013-02-25 13:02:00,47.2,41.3,29.74,West,270,3.4,3.4,80,0.00,,,0.20,WUHU216HW,2013-02-25 21:02:00,
2013-02-25 13:07:00,47.2,41.0,29.74,WNW,289,1.6,3.4,79,0.00,,,0.20,WUHU216HW,2013-02-25 21:07:00,
2013-02-25 13:12:00,47.2,41.3,29.74,NNW,338,1.3,3.4,80,0.00,,,0.20,WUHU216HW,2013-02-25 21:12:00,
2013-02-25 13:17:00,47.2,41.3,29.74,North,0,1.3,1.8,80,0.00,,,0.20,WUHU216HW,2013-02-25 21:17:00,
2013-02-25 13:22:00,47.2,41.3,29.74,WSW,238,0.8,1.6,80,0.00,,,0.20,WUHU216HW,2013-02-25 21:22:00,
2013-02-25 13:27:00,47.2,41.0,29.75,West,270,1.8,1.8,79,0.00,,,0.20,WUHU216HW,2013-02-25 21:27:00,
2013-02-25 13:32:00,47.0,40.1,29.76,NE,45,1.1,1.8,77,0.00,,,0.20,WUHU216HW,2013-02-25 21:32:00,
2013-02-25 13:37:00,46.8,40.0,29.76,South,180,1.1,1.8,77,0.00,,,0.20,WUHU216HW,2013-02-25 21:37:00,
2013-02-25 13:42:00,46.6,40.1,29.76,East,90,0.7,1.8,78,0.00,,,0.20,WUHU216HW,2013-02-25 21:42:00,
2013-02-25 13:47:00,46.6,39.8,29.76,West,270,1.1,1.8,77,0.00,,,0.20,WUHU216HW,2013-02-25 21:47:00,
2013-02-25 13:52:00,46.6,40.1,29.77,North,9,0.4,1.8,78,0.00,,,0.20,WUHU216HW,2013-02-25 21:52:00,
2013-02-25 13:57:00,46.6,40.1,29.77,North,359,1.1,1.8,78,0.00,,,0.20,WUHU216HW,2013-02-25 21:57:00,
2013-02-25 14:02:00,46.6,40.1,29.77,West,270,1.3,1.6,78,0.00,,,0.20,WUHU216HW,2013-02-25 22:02:00,
2013-02-25 14:07:00,46.8,40.3,29.77,SSW,203,0.2,2.0,78,0.00,,,0.20,WUHU216HW,2013-02-25 22:07:00,
2013-02-25 14:12:00,46.8,40.0,29.77,NW,315,1.8,2.0,77,0.00,,,0.20,WUHU216HW,2013-02-25 22:12:00,
2013-02-25 14:17:00,46.8,40.0,29.77,North,0,0.4,1.8,77,0.00,,,0.20,WUHU216HW,2013-02-25 22:17:00,
2013-02-25 14:22:00,46.8,40.0,29.78,North,0,0.2,1.8,77,0.00,,,0.20,WUHU216HW,2013-02-25 22:22:00,
2013-02-25 14:27:00,46.8,40.3,29.78,WNW,303,2.3,3.4,78,0.00,,,0.20,WUHU216HW,2013-02-25 22:27:00,
2013-02-25 14:32:00,46.8,40.3,29.78,ESE,113,1.1,3.4,78,0.00,,,0.20,WUHU216HW,2013-02-25 22:32:00,
2013-02-25 14:37:00,47.2,40.7,29.79,North,0,1.3,1.3,78,0.00,,,0.20,WUHU216HW,2013-02-25 22:37:00,
2013-02-25 14:42:00,47.2,40.3,29.79,West,270,2.0,2.0,77,0.00,,,0.20,WUHU216HW,2013-02-25 22:42:00,
2013-02-25 14:47:00,47.2,40.0,29.79,West,270,1.6,2.0,76,0.00,,,0.20,WUHU216HW,2013-02-25 22:47:00,
2013-02-25 14:52:00,47.2,40.0,29.80,West,265,2.2,2.5,76,0.00,,,0.20,WUHU216HW,2013-02-25 22:52:00,
2013-02-25 14:57:00,47.2,39.6,29.80,WSW,248,1.8,2.5,75,0.00,,,0.20,WUHU216HW,2013-02-25 22:57:00,
2013-02-25 15:02:00,47.0,39.4,29.80,West,268,2.1,3.1,75,0.00,,,0.20,WUHU216HW,2013-02-25 23:02:00,
2013-02-25 15:07:00,46.8,39.3,29.80,West,274,1.4,3.1,75,0.00,,,0.20,WUHU216HW,2013-02-25 23:07:00,
2013-02-25 15:12:00,46.8,39.3,29.81,NW,311,2.0,3.4,75,0.00,,,0.20,WUHU216HW,2013-02-25 23:12:00,
2013-02-25 15:17:00,46.8,39.3,29.81,SSE,158,1.3,3.4,75,0.00,,,0.20,WUHU216HW,2013-02-25 23:17:00,
2013-02-25 15:22:00,46.6,39.5,29.81,WSW,248,1.6,2.5,76,0.00,,,0.20,WUHU216HW,2013-02-25 23:22:00,
2013-02-25 15:27:00,46.6,39.5,29.82,SE,135,1.3,1.6,76,0.00,,,0.20,WUHU216HW,2013-02-25 23:27:00,
2013-02-25 15:32:00,46.6,39.8,29.82,NW,315,1.1,1.6,77,0.00,,,0.20,WUHU216HW,2013-02-25 23:32:00,
2013-02-25 15:37:00,46.6,39.8,29.82,West,270,1.1,1.1,77,0.00,,,0.20,WUHU216HW,2013-02-25 23:37:00,
2013-02-25 15:42:00,46.4,39.3,29.82,WSW,252,1.1,2.0,76,0.00,,,0.20,WUHU216HW,2013-02-25 23:42:00,
2013-02-25 15:47:00,46.4,39.3,29.82,WSW,251,1.5,2.5,76,0.00,,,0.20,WUHU216HW,2013-02-25 23:47:00,
2013-02-25 15:52:00,46.4,39.7,29.82,WSW,248,1.8,2.5,77,0.00,,,0.20,WUHU216HW,2013-02-25 23:52:00,
2013-02-25 15:57:00,46.4,39.7,29.82,SSE,158,1.1,1.8,77,0.00,,,0.20,WUHU216HW,2013-02-25 23:57:00,
2013-02-25 16:02:00,46.3,39.5,29.82,ESE,113,1.8,1.8,77,0.00,,,0.20,WUHU216HW,2013-02-26 00:02:00,
2013-02-25 16:07:00,46.3,39.8,29.83,SW,214,1.1,1.8,78,0.00,,,0.20,WUHU216HW,2013-02-26 00:07:00,
2013-02-25 16:12:00,46.1,39.3,29.83,South,179,0.8,1.8,77,0.00,,,0.20,WUHU216HW,2013-02-26 00:12:00,
2013-02-25 16:17:00,46.1,39.3,29.83,SSW,195,1.0,1.8,77,0.00,,,0.20,WUHU216HW,2013-02-26 00:17:00,
2013-02-25 16:22:00,46.1,39.3,29.84,WSW,253,0.4,2.5,77,0.00,,,0.20,WUHU216HW,2013-02-26 00:22:00,
2013-02-25 16:27:00,46.1,39.3,29.84,SSE,158,1.8,2.5,77,0.00,,,0.20,WUHU216HW,2013-02-26 00:27:00,
2013-02-25 16:32:00,45.9,39.2,29.84,SSE,158,2.0,2.0,77,0.00,,,0.20,WUHU216HW,2013-02-26 00:32:00,
2013-02-25 16:37:00,46.1,39.3,29.84,WNW,293,0.7,3.1,77,0.00,,,0.20,WUHU216HW,2013-02-26 00:37:00,
2013-02-25 16:42:00,46.1,39.3,29.84,SSE,158,1.3,3.1,77,0.00,,,0.20,WUHU216HW,2013-02-26 00:42:00,
2013-02-25 16:47:00,45.9,38.8,29.84,SE,135,1.1,2.2,76,0.00,,,0.20,WUHU216HW,2013-02-26 00:47:00,
2013-02-25 16:52:00,46.1,38.6,29.84,North,0,0.4,2.2,75,0.00,,,0.20,WUHU216HW,2013-02-26 00:52:00,
2013-02-25 16:57:00,45.9,38.4,29.84,North,0,0.2,1.8,75,0.00,,,0.20,WUHU216HW,2013-02-26 00:57:00,
2013-02-25 17:02:00,45.9,38.8,29.85,NW,315,0.4,0.4,76,0.00,,,0.20,WUHU216HW,2013-02-26 01:02:00,
2013-02-25 17:07:00,46.1,38.6,29.85,ESE,113,0.7,0.9,75,0.00,,,0.20,WUHU216HW,2013-02-26 01:07:00,
2013-02-25 17:12:00,46.1,38.6,29.85,SSE,158,0.4,2.5,75,0.00,,,0.20,WUHU216HW,2013-02-26 01:12:00,
2013-02-25 17:17:00,46.3,38.8,29.85,South,184,1.4,2.5,75,0.00,,,0.20,WUHU216HW,2013-02-26 01:17:00,
2013-02-25 17:22:00,46.3,38.4,29.86,SSW,208,1.7,2.5,74,0.00,,,0.20,WUHU216HW,2013-02-26 01:22:00,
2013-02-25 17:27:00,46.1,38.6,29.86,SW,225,1.8,2.5,75,0.00,,,0.20,WUHU216HW,2013-02-26 01:27:00,
2013-02-25 17:32:00,46.1,38.6,29.86,South,171,0.4,2.0,75,0.00,,,0.20,WUHU216HW,2013-02-26 01:32:00,
2013-02-25 17:37:00,45.9,38.8,29.86,SSE,158,0.7,2.0,76,0.00,,,0.20,WUHU216HW,2013-02-26 01:37:00,
2013-02-25 17:42:00,45.7,38.6,29.87,South,180,0.4,1.8,76,0.00,,,0.20,WUHU216HW,2013-02-26 01:42:00,
2013-02-25 17:47:00,45.5,38.8,29.87,SSW,203,0.3,1.6,77,0.00,,,0.20,WUHU216HW,2013-02-26 01:47:00,
2013-02-25 17:52:00,45.4,38.3,29.87,SSE,158,0.4,1.6,76,0.00,,,0.20,WUHU216HW,2013-02-26 01:52:00,
2013-02-25 17:57:00,45.4,38.3,29.87,SW,225,0.0,0.9,76,0.00,,,0.20,WUHU216HW,2013-02-26 01:57:00,
2013-02-25 18:02:00,45.2,38.4,29.87,SW,225,0.4,0.9,77,0.00,,,0.20,WUHU216HW,2013-02-26 02:02:00,
2013-02-25 18:07:00,45.0,38.3,29.87,SSW,203,0.9,0.9,77,0.00,,,0.20,WUHU216HW,2013-02-26 02:07:00,
2013-02-25 18:12:00,44.8,38.1,29.88,SW,227,1.0,1.1,77,0.00,,,0.20,WUHU216HW,2013-02-26 02:12:00,
2013-02-25 18:17:00,44.8,37.7,29.88,SW,217,2.7,3.4,76,0.00,,,0.20,WUHU216HW,2013-02-26 02:17:00,
2013-02-25 18:22:00,45.0,37.5,29.88,WSW,248,2.3,3.4,75,0.00,,,0.20,WUHU216HW,2013-02-26 02:22:00,
2013-02-25 18:27:00,45.0,37.5,29.89,WSW,248,0.4,2.5,75,0.00,,,0.20,WUHU216HW,2013-02-26 02:27:00,
2013-02-25 18:32:00,44.8,37.7,29.89,SE,135,0.4,2.2,76,0.00,,,0.20,WUHU216HW,2013-02-26 02:32:00,
2013-02-25 18:37:00,44.8,37.7,29.89,SW,225,0.8,2.2,76,0.00,,,0.20,WUHU216HW,2013-02-26 02:37:00,
2013-02-25 18:42:00,44.6,37.2,29.90,SSE,158,1.5,2.5,75,0.00,,,0.20,WUHU216HW,2013-02-26 02:42:00,
2013-02-25 18:47:00,44.6,37.2,29.90,SSW,203,2.2,2.5,75,0.00,,,0.20,WUHU216HW,2013-02-26 02:47:00,
2013-02-25 18:52:00,44.6,37.2,29.90,SW,225,1.3,2.2,75,0.00,,,0.20,WUHU216HW,2013-02-26 02:52:00,
2013-02-25 18:57:00,44.6,36.8,29.90,SW,231,1.5,1.8,74,0.00,,,0.20,WUHU216HW,2013-02-26 02:57:00,
2013-02-25 19:02:00,44.6,36.8,29.90,WNW,293,2.5,2.7,74,0.00,,,0.20,WUHU216HW,2013-02-26 03:02:00,
2013-02-25 19:07:00,44.6,36.8,29.90,WSW,239,1.3,2.7,74,0.00,,,0.20,WUHU216HW,2013-02-26 03:07:00,
2013-02-25 19:12:00,44.5,37.0,29.91,WSW,248,1.8,2.5,75,0.00,,,0.20,WUHU216HW,2013-02-26 03:12:00,
2013-02-25 19:17:00,44.6,37.2,29.91,SSW,203,1.3,1.8,75,0.00,,,0.20,WUHU216HW,2013-02-26 03:17:00,
2013-02-25 19:22:00,44.5,37.0,29.91,SSE,158,0.4,1.8,75,0.00,,,0.20,WUHU216HW,2013-02-26 03:22:00,
2013-02-25 19:27:00,44.5,37.0,29.92,SE,135,0.7,1.8,75,0.00,,,0.20,WUHU216HW,2013-02-26 03:27:00,
2013-02-25 19:32:00,44.3,37.2,29.92,SE,135,0.7,0.7,76,0.00,,,0.20,WUHU216HW,2013-02-26 03:32:00,
2013-02-25 19:37:00,44.3,37.2,29.92,SW,220,1.6,2.7,76,0.00,,,0.20,WUHU216HW,2013-02-26 03:37:00,
2013-02-25 19:42:00,44.5,37.0,29.92,SW,225,1.7,2.7,75,0.00,,,0.20,WUHU216HW,2013-02-26 03:42:00,
2013-02-25 19:47:00,44.6,36.8,29.92,SW,225,1.1,2.5,74,0.00,,,0.20,WUHU216HW,2013-02-26 03:47:00,
2013-02-25 19:52:00,45.0,36.6,29.93,SW,225,1.8,2.5,72,0.00,,,0.20,WUHU216HW,2013-02-26 03:52:00,
2013-02-25 19:57:00,45.2,36.7,29.93,SSW,203,1.3,3.4,72,0.00,,,0.20,WUHU216HW,2013-02-26 03:57:00,
2013-02-25 20:02:00,45.2,37.0,29.93,SSW,196,2.0,4.3,73,0.00,,,0.20,WUHU216HW,2013-02-26 04:02:00,
2013-02-25 20:07:00,45.2,37.4,29.94,SE,135,3.1,4.3,74,0.00,,,0.20,WUHU216HW,2013-02-26 04:07:00,
2013-02-25 20:12:00,45.2,37.4,29.94,SSE,158,1.6,3.1,74,0.00,,,0.20,WUHU216HW,2013-02-26 04:12:00,
2013-02-25 20:17:00,45.2,37.4,29.95,SSW,203,4.0,4.0,74,0.00,,,0.20,WUHU216HW,2013-02-26 04:17:00,
2013-02-25 20:22:00,45.2,37.4,29.95,SE,135,2.5,4.0,74,0.00,,,0.20,WUHU216HW,2013-02-26 04:22:00,
2013-02-25 20:27:00,45.0,37.2,29.95,SSW,203,2.9,3.4,74,0.00,,,0.20,WUHU216HW,2013-02-26 04:27:00,
2013-02-25 20:32:00,45.0,37.2,29.95,SSW,208,2.3,3.4,74,0.00,,,0.20,WUHU216HW,2013-02-26 04:32:00,
2013-02-25 20:37:00,45.0,37.2,29.95,SSW,208,1.5,2.9,74,0.00,,,0.20,WUHU216HW,2013-02-26 04:37:00,
2013-02-25 20:42:00,45.0,37.2,29.96,SW,218,2.8,4.7,74,0.00,,,0.20,WUHU216HW,2013-02-26 04:42:00,
2013-02-25 20:47:00,45.0,37.5,29.96,SE,135,1.6,4.7,75,0.00,,,0.20,WUHU216HW,2013-02-26 04:47:00,
2013-02-25 20:52:00,45.0,37.2,29.96,ESE,105,1.0,1.8,74,0.00,,,0.20,WUHU216HW,2013-02-26 04:52:00,
2013-02-25 20:57:00,44.8,37.0,29.96,South,180,1.8,1.8,74,0.00,,,0.20,WUHU216HW,2013-02-26 04:57:00,
2013-02-25 21:00:00,44.8,37.0,29.97,SSE,161,1.0,1.8,74,0.00,,,0.20,WUHU216HW,2013-02-26 05:00:00,
2013-02-25 21:05:00,44.6,36.8,29.97,SSE,158,0.4,1.8,74,0.00,,,0.20,WUHU216HW,2013-02-26 05:05:00,
2013-02-25 21:10:00,44.6,37.2,29.97,SSW,203,1.8,1.8,75,0.00,,,0.20,WUHU216HW,2013-02-26 05:10:00,
2013-02-25 21:15:00,44.5,37.0,29.97,SE,135,1.8,2.5,75,0.00,,,0.20,WUHU216HW,2013-02-26 05:15:00,
2013-02-25 21:20:00,44.5,37.4,29.97,WNW,293,0.7,2.5,76,0.00,,,0.20,WUHU216HW,2013-02-26 05:20:00,
2013-02-25 21:25:00,44.5,37.4,29.98,NW,315,0.4,1.3,76,0.00,,,0.20,WUHU216HW,2013-02-26 05:25:00,
2013-02-25 21:30:00,44.3,37.5,29.98,WNW,293,0.0,0.4,77,0.00,,,0.20,WUHU216HW,2013-02-26 05:30:00,
2013-02-25 21:35:00,44.3,37.5,29.98,WNW,293,0.0,0.0,77,0.00,,,0.20,WUHU216HW,2013-02-26 05:35:00,
2013-02-25 21:40:00,43.9,37.2,29.99,ESE,113,0.4,0.4,77,0.00,,,0.20,WUHU216HW,2013-02-26 05:40:00,
2013-02-25 21:45:00,43.7,37.0,29.99,ESE,113,0.8,1.1,77,0.00,,,0.20,WUHU216HW,2013-02-26 05:45:00,
2013-02-25 21:50:00,43.6,36.8,29.99,ESE,113,0.6,1.1,77,0.00,,,0.20,WUHU216HW,2013-02-26 05:50:00,
2013-02-25 21:55:00,43.6,36.8,29.99,SE,135,0.7,0.7,77,0.00,,,0.20,WUHU216HW,2013-02-26 05:55:00,
2013-02-25 22:00:00,43.4,36.6,29.99,SE,135,0.9,1.1,77,0.00,,,0.20,WUHU216HW,2013-02-26 06:00:00,
2013-02-25 22:05:00,43.2,36.8,29.99,SE,135,0.0,1.1,78,0.00,,,0.20,WUHU216HW,2013-02-26 06:05:00,
2013-02-25 22:10:00,43.0,36.6,29.99,South,191,0.8,1.1,78,0.00,,,0.20,WUHU216HW,2013-02-26 06:10:00,
2013-02-25 22:15:00,42.8,36.5,29.99,SSE,158,0.4,1.1,78,0.00,,,0.20,WUHU216HW,2013-02-26 06:15:00,
2013-02-25 22:20:00,42.7,36.3,30.00,WSW,240,1.3,1.8,78,0.00,,,0.20,WUHU216HW,2013-02-26 06:20:00,
2013-02-25 22:25:00,42.7,36.3,30.00,SSE,158,0.3,1.8,78,0.00,,,0.20,WUHU216HW,2013-02-26 06:25:00,
2013-02-25 22:30:00,42.7,36.3,30.00,SW,226,1.3,1.8,78,0.00,,,0.20,WUHU216HW,2013-02-26 06:30:00,
2013-02-25 22:35:00,42.7,36.3,30.00,SSE,158,1.1,2.2,78,0.00,,,0.20,WUHU216HW,2013-02-26 06:35:00,
2013-02-25 22:40:00,42.5,36.1,30.00,SSE,158,0.0,2.2,78,0.00,,,0.20,WUHU216HW,2013-02-26 06:40:00,
2013-02-25 22:45:00,42.3,36.2,30.00,SE,135,0.4,0.7,79,0.00,,,0.20,WUHU216HW,2013-02-26 06:45:00,
2013-02-25 22:50:00,41.9,35.8,30.00,SE,135,0.0,0.7,79,0.00,,,0.20,WUHU216HW,2013-02-26 06:50:00,
2013-02-25 22:55:00,41.8,35.6,30.00,SE,135,0.0,0.7,79,0.00,,,0.20,WUHU216HW,2013-02-26 06:55:00,
2013-02-25 23:00:00,41.4,35.3,30.00,North,0,0.0,0.0,79,0.00,,,0.20,WUHU216HW,2013-02-26 07:00:00,
2013-02-25 23:05:00,41.2,35.5,30.00,NNW,338,2.2,2.2,80,0.00,,,0.20,WUHU216HW,2013-02-26 07:05:00,
2013-02-25 23:10:00,41.2,35.5,30.00,North,356,0.6,2.2,80,0.00,,,0.20,WUHU216HW,2013-02-26 07:10:00,
2013-02-25 23:15:00,41.0,35.3,30.00,NW,315,0.2,1.1,80,0.00,,,0.20,WUHU216HW,2013-02-26 07:15:00,
2013-02-25 23:20:00,41.0,35.3,30.00,North,0,1.3,1.3,80,0.00,,,0.20,WUHU216HW,2013-02-26 07:20:00,
2013-02-25 23:25:00,41.2,35.1,30.01,ESE,113,0.4,1.3,79,0.00,,,0.20,WUHU216HW,2013-02-26 07:25:00,
2013-02-25 23:30:00,41.2,35.1,30.01,ESE,113,1.1,2.5,79,0.00,,,0.20,WUHU216HW,2013-02-26 07:30:00,
2013-02-25 23:35:00,40.9,35.1,30.01,ESE,113,1.8,2.5,80,0.00,,,0.20,WUHU216HW,2013-02-26 07:35:00,
2013-02-25 23:40:00,40.7,34.9,30.01,ESE,113,0.6,1.8,80,0.00,,,0.20,WUHU216HW,2013-02-26 07:40:00,
2013-02-25 23:45:00,40.3,34.9,30.02,East,90,0.0,1.8,81,0.00,,,0.20,WUHU216HW,2013-02-26 07:45:00,
2013-02-25 23:50:00,40.0,34.3,30.02,East,90,0.0,0.7,80,0.00,,,0.20,WUHU216HW,2013-02-26 07:50:00,
2013-02-25 23:55:00,39.8,34.1,30.01,East,90,0.0,0.0,80,0.00,,,0.20,WUHU216HW,2013-02-26 07:55:00,